{"data":{"norad_id":56157,"epoch":"2026-09-21T22:28:39.615168Z","epoch_age_seconds":62932,"freshness":"FRESH","line1":"1 56157U 23048A   26264.93656962 -.00000070  00000+0  34247-4 0  9998","line2":"2 56157  63.4009 209.8478 0075757 356.1863   3.8577 13.45395302170956","mean_motion":13.45395302,"eccentricity":0.0075757,"inclination_deg":63.4009,"raan_deg":209.8478,"arg_perigee_deg":356.1863,"mean_anomaly_deg":3.8577,"bstar":3.4247e-5,"rev_number":17095,"period_min":107.03173988042,"perigee_km":1032.6777928849,"apogee_km":1145.8191370185,"semimajor_km":7467.3854649517,"source":"CELESTRAK","updated_at":"2026-09-22T09:00:25.728848Z"}}